Huron, SD

4:45 PM CST on February 19, 2017 (GMT -0600)
Huron Regional

Weather History for KHON - March, 2014

Change the Weather History Date:

Tuesday, March 18, 2014

  Actual Average Record
Temperature  
Mean Temperature 33 °F 34 °F  
Max Temperature 36 °F 45 °F 88 °F (2012)
Min Temperature 29 °F 24 °F -13 °F (1923)
Degree Days  
Heating Degree Days 32 31  
Month to date heating degree days 678 623  
Since 1 July heating degree days 6998 6455  
Cooling Degree Days 0 0  
Month to date cooling degree days 0 0  
Year to date cooling degree days 0 0  
Moisture  
Dew Point 28 °F    
Average Humidity 79    
Maximum Humidity 85    
Minimum Humidity 72    
Precipitation  
Precipitation 0.01 in 0.05 in 0.74 in (1903)
Month to date precipitation 0.37 0.70  
Year to date precipitation 0.93 1.80  
Snow  
Snow T in 0.20 in 5.20 in (1963)
Month to date snowfall 3.5 5.7  
Since 1 July snowfall 25.2 36.7  
Snow Depth 0.00 in    
Sea Level Pressure  
Sea Level Pressure 29.71 in    
Wind  
Wind Speed 18 mph (NNE)    
Max Wind Speed 29 mph    
Max Gust Speed 36 mph    
Visibility 7 miles    
Events Snow    
T = Trace of Precipitation, MM = Missing Value Source: NWS Daily Summary

Daily Weather History Graph

Daily Weather History Graph

Search for Another Location

Airport or City:

Trip Planner

Search our weather history database for the weather conditions in past years. The results will help you decide how hot, cold, wet, or windy it might be!

Date:

Astronomy

Mar. 18, 2014 Rise Set
Actual Time 7:39 AM CDT 7:42 PM CDT
Civil Twilight 7:10 AM CDT 8:11 PM CDT
Nautical Twilight 6:36 AM CDT 8:45 PM CDT
Astronomical Twilight 6:02 AM CDT 9:20 PM CDT
Moon 10:07 PM CDT (3/18) 8:24 AM CDT (3/18)
Length of Visible Light 13h 01m
Length of Day
12h 03m
Waning Gibbous, 96% of the Moon is Illuminated
Mar 18
Waning Gibbous
Mar 23
Last Quarter
Mar 30
New
Apr 7
First Quarter
Apr 15
Full

Hourly Weather History & Observations

Time (CDT) Temp. Windchill Dew Point Humidity Pressure Visibility Wind Dir Wind Speed Gust Speed Precip Events Conditions
12:55 AM 36.0 °F 26.3 °F 30.9 °F 82% 29.42 in 9.0 mi NNE 16.1 mph - N/A   Clear
1:55 AM 35.1 °F 25.5 °F 30.0 °F 82% 29.45 in 10.0 mi NNE 15.0 mph - N/A   Mostly Cloudy
2:55 AM 35.1 °F 23.8 °F 30.0 °F 82% 29.47 in 10.0 mi NE 20.7 mph 28.8 mph N/A   Overcast
3:45 AM 34.0 °F 23.4 °F 28.9 °F 82% 29.48 in 10.0 mi NE 17.3 mph - N/A   Mostly Cloudy
3:55 AM 34.0 °F 22.7 °F 28.9 °F 82% 29.50 in 10.0 mi NE 19.6 mph - N/A   Mostly Cloudy
4:06 AM 34.0 °F 23.0 °F 28.9 °F 82% 29.49 in 10.0 mi NNE 18.4 mph - N/A   Mostly Cloudy
4:55 AM 33.1 °F 21.9 °F 28.0 °F 82% 29.54 in 10.0 mi NNE 18.4 mph - N/A   Mostly Cloudy
5:13 AM 33.1 °F 23.0 °F 28.0 °F 82% 29.53 in 9.0 mi NNE 15.0 mph 25.3 mph N/A   Mostly Cloudy
5:37 AM 33.1 °F 21.2 °F 28.0 °F 82% 29.54 in 8.0 mi NNE 20.7 mph 28.8 mph N/A   Mostly Cloudy
5:52 AM 33.8 °F 21.3 °F 28.4 °F 81% 29.54 in 7.0 mi NNE 24.2 mph 31.1 mph N/A   Mostly Cloudy
5:55 AM 33.1 °F 21.2 °F 28.0 °F 82% 29.56 in 7.0 mi NNE 20.7 mph 31.1 mph N/A   Mostly Cloudy
6:04 AM 33.1 °F 19.8 °F 28.0 °F 82% 29.54 in 7.0 mi NNE 26.5 mph 32.2 mph N/A   Scattered Clouds
6:55 AM 33.1 °F 21.9 °F 28.0 °F 82% 29.60 in 6.0 mi NE 18.4 mph 29.9 mph N/A   Haze
7:07 AM 33.1 °F 23.0 °F 28.0 °F 82% 29.59 in 7.0 mi NNE 15.0 mph 24.2 mph N/A   Overcast
7:55 AM 33.1 °F 22.2 °F 28.0 °F 82% 29.66 in 10.0 mi NNE 17.3 mph 25.3 mph N/A   Overcast
8:55 AM 33.1 °F 22.2 °F 28.9 °F 85% 29.69 in 3.0 mi NNE 17.3 mph - 0.00 in Snow Light Snow
9:12 AM 33.1 °F 21.5 °F 28.9 °F 85% 29.66 in 2.5 mi NNE 19.6 mph - 0.00 in Snow Light Snow
9:44 AM 33.1 °F 21.9 °F 30.0 °F 89% 29.67 in 3.0 mi NNE 18.4 mph 27.6 mph 0.00 in Snow Light Snow
9:55 AM 32.0 °F 20.8 °F 28.9 °F 88% 29.71 in 3.0 mi NNE 17.3 mph - 0.00 in Snow Light Snow
10:31 AM 33.1 °F 23.0 °F 28.9 °F 85% 29.71 in 3.0 mi NNE 15.0 mph 23.0 mph 0.00 in Snow Light Snow
10:41 AM 32.0 °F 21.6 °F 28.9 °F 88% 29.72 in 2.5 mi North 15.0 mph - 0.00 in Snow Light Snow
10:55 AM 32.0 °F 21.2 °F 28.9 °F 88% 29.75 in 2.5 mi North 16.1 mph - 0.00 in Snow Light Snow
11:07 AM 32.0 °F 20.8 °F 28.9 °F 88% 29.73 in 1.5 mi North 17.3 mph - 0.00 in Snow Light Snow
11:55 AM 32.0 °F 19.8 °F 28.9 °F 88% 29.78 in 1.5 mi North 20.7 mph - 0.01 in Snow Light Snow
12:08 PM 32.0 °F 19.2 °F 28.9 °F 88% 29.74 in 2.5 mi North 23.0 mph 27.6 mph 0.00 in Snow Light Snow
12:15 PM 32.0 °F 20.5 °F 28.0 °F 85% 29.74 in 4.0 mi North 18.4 mph 28.8 mph 0.00 in   Overcast
12:55 PM 33.1 °F 20.9 °F 28.9 °F 85% 29.78 in 6.0 mi North 21.9 mph 29.9 mph 0.00 in   Overcast
1:55 PM 33.1 °F 21.5 °F 28.9 °F 85% 29.81 in 8.0 mi North 19.6 mph - N/A   Overcast
2:55 PM 32.0 °F 18.6 °F 28.0 °F 85% 29.81 in 8.0 mi North 25.3 mph 31.1 mph N/A   Overcast
3:37 PM 32.0 °F 19.2 °F 28.0 °F 85% 29.78 in 10.0 mi North 23.0 mph 29.9 mph N/A   Overcast
3:55 PM 32.0 °F 19.2 °F 27.0 °F 82% 29.83 in 10.0 mi North 23.0 mph - N/A   Overcast
4:55 PM 33.1 °F 21.5 °F 27.0 °F 78% 29.86 in 10.0 mi North 19.6 mph 27.6 mph N/A   Overcast
5:55 PM 33.1 °F 21.5 °F 27.0 °F 78% 29.89 in 10.0 mi North 19.6 mph 27.6 mph N/A   Overcast
6:28 PM 32.0 °F 19.8 °F 27.0 °F 82% 29.87 in 10.0 mi North 20.7 mph 26.5 mph N/A   Overcast
6:55 PM 32.0 °F 20.8 °F 26.1 °F 79% 29.92 in 10.0 mi NNW 17.3 mph 24.2 mph N/A   Overcast
7:55 PM 30.9 °F 19.1 °F 26.1 °F 82% 29.95 in 10.0 mi NNW 18.4 mph - N/A   Overcast
8:55 PM 30.9 °F 18.4 °F 25.0 °F 79% 29.97 in 10.0 mi NNW 20.7 mph - N/A   Overcast
9:55 PM 32.0 °F 20.1 °F 25.0 °F 75% 29.98 in 10.0 mi North 19.6 mph 26.5 mph N/A   Overcast
10:55 PM 30.9 °F 20.7 °F 25.0 °F 79% 30.00 in 10.0 mi North 13.8 mph - N/A   Overcast
11:55 PM 28.9 °F 19.8 °F 25.0 °F 85% 30.01 in 10.0 mi North 10.4 mph - N/A   Mostly Cloudy